{"data":{"norad_id":63501,"epoch":"2026-05-25T03:47:49.845120Z","epoch_age_seconds":51487,"freshness":"FRESH","line1":"1 63501U 25071J   26145.15821580  .00020985  00000+0  71884-3 0  9992","line2":"2 63501  53.1564 145.0147 0001110  95.6897 264.4231 15.30190790 64412","mean_motion":15.3019079,"eccentricity":0.000111,"inclination_deg":53.1564,"raan_deg":145.0147,"arg_perigee_deg":95.6897,"mean_anomaly_deg":264.4231,"bstar":0.00071884,"rev_number":6441,"period_min":94.10591211309,"perigee_km":474.48184382499,"apogee_km":476.00329408929,"semimajor_km":6853.3795689571,"source":"CELESTRAK","updated_at":"2026-05-25T13:38:20.013214Z"}}